FW7029 Weather Reports


Display with metric or nautical units.
time (UTC)temp
F
wind
direction
speed
MPH
gust
MPH
rain 1hr
in
rain 24hr
in
rain mn
in
humidity
%
barometer
mb
20260505080645 45 334 0.0 0.0 0.00 0.00 0.00 95 1012.4
20260505080140 44 338 0.0 0.0 0.00 0.00 0.00 95 1012.3
20260505075637 44 336 0.0 0.0 0.00 0.00 0.00 95 1012.1
20260505075133 44 264 0.0 0.0 0.00 0.00 0.00 95 1012.1
20260505074630 44 264 0.0 0.0 0.00 0.00 0.00 95 1012.0
20260505074127 44 264 0.0 0.0 0.00 0.00 0.00 95 1012.2
20260505073625 44 264 0.0 0.0 0.00 0.00 0.00 95 1012.3
20260505073123 44 264 0.0 0.0 0.00 0.00 0.00 95 1012.4
20260505072618 44 264 0.0 0.0 0.00 0.00 0.00 95 1012.2
20260505072115 44 264 0.0 0.0 0.00 0.00 0.00 95 1012.1
20260505071611 44 264 0.0 0.0 0.00 0.00 0.00 94 1012.4
20260505071109 44 264 0.0 0.0 0.00 0.00 0.00 94 1012.4
20260505070606 44 264 0.0 0.0 0.00 0.00 0.00 94 1012.4
20260505065558 44 264 0.0 0.0 0.00 0.00 0.00 94 1012.0
20260505065055 44 264 0.0 0.0 0.00 0.00 0.00 94 1012.1
20260505064551 44 264 0.0 0.0 0.00 0.00 0.00 94 1012.2
20260505064050 44 264 0.0 0.0 0.00 0.00 0.00 94 1012.2
20260505063547 44 264 0.0 0.0 0.00 0.00 0.00 95 1012.4
20260505063043 44 264 0.0 0.0 0.00 0.00 0.00 95 1012.3
20260505062540 44 264 0.0 0.0 0.00 0.00 0.00 95 1012.2
20260505062037 44 264 0.0 0.0 0.00 0.00 0.00 95 1012.3
20260505061534 44 264 0.0 0.0 0.00 0.00 0.00 95 1012.2
20260505061032 44 264 0.0 0.0 0.00 0.00 0.00 95 1012.3
20260505060529 44 264 0.0 0.0 0.00 0.00 0.00 95 1012.5
20260505060026 44 264 0.0 0.0 0.00 0.14 0.14 95 1012.2
20260505055521 44 264 0.0 0.0 0.00 0.14 0.14 94 1012.5
20260505055018 44 264 0.0 0.0 0.00 0.14 0.14 94 1012.4
20260505054516 44 264 0.0 0.0 0.00 0.14 0.14 94 1012.4
20260505054014 44 264 0.0 0.0 0.00 0.14 0.14 94 1012.5
20260505053510 44 264 0.0 0.0 0.00 0.14 0.14 94 1012.1
20260505053007 44 264 0.0 0.0 0.00 0.14 0.14 94 1012.2
20260505052504 44 264 0.0 0.0 0.00 0.14 0.14 93 1012.3
20260505052001 44 264 0.0 0.0 0.00 0.14 0.14 93 1012.3
20260505051458 44 264 0.0 0.0 0.00 0.14 0.14 93 1012.3
20260505050956 44 264 0.0 0.0 0.00 0.14 0.14 93 1012.4
20260505050454 44 264 0.0 0.0 0.00 0.14 0.14 92 1012.5
20260505041422 45 282 0.0 1.0 0.00 0.14 0.14 92 1012.7
20260505040919 45 286 0.0 1.0 0.00 0.14 0.14 92 1012.9
20260505040416 45 293 0.0 0.0 0.05 0.14 0.14 92 1012.9
20260505035913 45 290 1.0 1.0 0.05 0.14 0.14 91 1012.8
20260505035409 45 262 0.0 0.0 0.17 0.14 0.14 91 1012.5
20260505034907 45 286 0.0 0.0 0.19 0.13 0.13 90 1012.5
20260505034403 45 276 0.0 0.0 0.12 0.11 0.11 90 1012.8
20260505033900 45 282 0.0 0.0 0.12 0.10 0.10 89 1012.7
20260505033357 45 285 1.0 1.0 0.12 0.09 0.09 88 1013.0
20260505032855 46 290 2.0 3.0 0.19 0.08 0.08 88 1012.9
20260505032351 46 303 3.0 5.0 0.19 0.07 0.07 86 1012.8
20260505031848 46 300 3.0 3.0 0.12 0.05 0.05 86 1012.9
20260505031345 47 285 1.0 2.0 0.12 0.04 0.04 86 1012.4
20260505030842 47 278 3.0 5.0 0.12 0.03 0.03 85 1012.5
20260505030338 48 269 1.0 2.0 0.12 0.02 0.02 83 1012.2
20260505025833 48 289 0.0 0.0 0.05 0.01 0.01 81 1012.2
20260505025331 49 309 1.0 1.0 0.00 0.00 0.00 76 1011.8
20260505024830 49 291 2.0 3.0 0.00 0.00 0.00 72 1012.0
20260505024327 50 331 4.0 6.0 0.00 0.00 0.00 69 1011.7
20260505023824 50 321 2.0 3.0 0.00 0.00 0.00 68 1011.7
20260505023321 50 326 0.0 1.0 0.00 0.00 0.00 68 1011.5
20260505022818 50 356 1.0 2.0 0.00 0.00 0.00 67 1011.4
20260505022315 50 270 3.0 5.0 0.00 0.00 0.00 67 1011.5
20260505021813 50 344 0.0 0.0 0.00 0.00 0.00 67 1011.4
20260505021309 50 225 0.0 0.0 0.00 0.00 0.00 66 1011.2
20260505020805 50 112 0.0 1.0 0.00 0.00 0.00 64 1011.2
20260505020301 51 32 1.0 1.0 0.00 0.00 0.00 64 1011.2
20260505015758 51 342 1.0 1.0 0.00 0.00 0.00 62 1011.2
20260505015255 52 10 1.0 2.0 0.00 0.00 0.00 61 1011.5
20260505014752 53 145 1.0 1.0 0.00 0.00 0.00 57 1011.5
20260505014249 53 322 1.0 1.0 0.00 0.00 0.00 53 1011.2
20260505013745 53 306 0.0 0.0 0.00 0.00 0.00 52 1010.9
20260505013243 53 307 0.0 0.0 0.00 0.00 0.00 51 1010.7
20260505012741 54 302 0.0 0.0 0.00 0.00 0.00 52 1010.8
20260505012238 54 109 0.0 0.0 0.00 0.00 0.00 53 1010.9
20260505011733 54 110 0.0 0.0 0.00 0.00 0.00 51 1011.0
20260505011231 54 111 0.0 0.0 0.00 0.00 0.00 52 1010.7
20260505010726 54 122 0.0 0.0 0.00 0.00 0.00 53 1010.9
20260505010223 54 116 0.0 0.0 0.00 0.00 0.00 52 1011.0
20260505005719 54 169 0.0 0.0 0.00 0.00 0.00 51 1010.8
20260505005217 54 116 0.0 1.0 0.00 0.00 0.00 51 1010.7
20260505004714 55 128 0.0 0.0 0.00 0.00 0.00 51 1010.8
20260505004210 55 0 2.0 2.0 0.00 0.00 0.00 49 1010.8
20260505003707 56 306 0.0 0.0 0.00 0.00 0.00 48 1010.9
20260505003205 57 130 1.0 1.0 0.00 0.00 0.00 46 1010.7
20260505002701 57 110 0.0 0.0 0.00 0.00 0.00 44 1010.7
20260505002159 57 318 0.0 0.0 0.00 0.00 0.00 44 1010.8
20260505001656 57 292 0.0 1.0 0.00 0.00 0.00 44 1010.8
20260505001153 57 286 1.0 1.0 0.00 0.00 0.00 43 1010.3
20260505000650 57 309 0.0 0.0 0.00 0.00 0.00 43 1010.4
20260505000148 58 95 0.0 1.0 0.00 0.00 0.00 44 1010.2
20260504235644 58 322 3.0 3.0 0.00 0.00 0.00 42 1010.4
20260504235141 58 317 3.0 3.0 0.00 0.00 0.00 41 1010.2
20260504234638 59 318 1.0 1.0 0.00 0.00 0.00 41 1010.1
20260504234136 59 317 1.0 2.0 0.00 0.00 0.00 40 1010.2
20260504233631 59 280 0.0 0.0 0.00 0.00 0.00 40 1010.1
20260504233127 59 349 0.0 1.0 0.00 0.00 0.00 40 1009.7
20260504232625 59 333 2.0 3.0 0.00 0.00 0.00 40 1009.9
20260504232122 60 339 4.0 6.0 0.00 0.00 0.00 39 1009.9
20260504231618 60 19 1.0 2.0 0.00 0.00 0.00 40 1009.9
20260504231109 59 245 0.0 1.0 0.00 0.00 0.00 39 1010.3
20260504230604 59 305 0.0 1.0 0.00 0.00 0.00 39 1009.8
20260504230104 60 302 1.0 2.0 0.00 0.00 0.00 39 1010.2
20260504225601 59 31 0.0 1.0 0.00 0.00 0.00 39 1009.9
20260504225058 60 323 4.0 8.0 0.00 0.00 0.00 38 1009.9
20260504224554 60 271 0.0 1.0 0.00 0.00 0.00 39 1009.9
20260504224052 59 58 3.0 6.0 0.00 0.00 0.00 39 1010.1
20260504223548 59 284 2.0 3.0 0.00 0.00 0.00 39 1009.9
20260504223044 59 15 3.0 6.0 0.00 0.00 0.00 40 1010.1
20260504222541 59 288 3.0 5.0 0.00 0.00 0.00 38 1009.9
20260504222039 59 29 1.0 1.0 0.00 0.00 0.00 40 1009.9
20260504221536 59 106 1.0 2.0 0.00 0.00 0.00 39 1009.7
20260504221032 59 292 3.0 5.0 0.00 0.00 0.00 39 1009.6
20260504220529 59 301 0.0 1.0 0.00 0.00 0.00 39 1009.6
20260504220027 60 305 5.0 8.0 0.00 0.00 0.00 37 1009.4
20260504215523 60 107 1.0 3.0 0.00 0.00 0.00 36 1009.2
20260504215020 61 340 2.0 2.0 0.00 0.00 0.00 36 1009.1
20260504214516 62 90 2.0 2.0 0.00 0.00 0.00 34 1009.1
20260504214012 62 332 1.0 1.0 0.00 0.00 0.00 34 1008.9
20260504213509 62 205 3.0 3.0 0.00 0.00 0.00 34 1008.6
20260504213007 63 338 2.0 3.0 0.00 0.00 0.00 33 1009.0
20260504212502 66 7 2.0 2.0 0.00 0.00 0.00 29 1009.0
20260504211959 67 326 2.0 3.0 0.00 0.00 0.00 24 1008.6
20260504211456 67 13 1.0 1.0 0.00 0.00 0.00 24 1008.6
20260504210953 67 162 1.0 1.0 0.00 0.00 0.00 24 1008.5
20260504210450 67 186 1.0 1.0 0.00 0.00 0.00 25 1008.5
20260504205947 66 319 0.0 0.0 0.00 0.00 0.00 28 1008.8
20260504205444 66 282 0.0 0.0 0.00 0.00 0.00 29 1008.9
20260504204943 66 135 1.0 2.0 0.00 0.00 0.00 28 1008.8
20260504204441 65 196 1.0 1.0 0.00 0.00 0.00 29 1009.0
20260504203939 64 327 0.0 0.0 0.00 0.00 0.00 30 1009.2
20260504203437 63 284 0.0 0.0 0.00 0.00 0.00 35 1009.2
20260504202933 63 235 0.0 1.0 0.00 0.00 0.00 33 1009.7
20260504202429 63 112 2.0 2.0 0.00 0.00 0.00 32 1009.6
20260504201926 63 308 0.0 0.0 0.00 0.00 0.00 35 1009.6
20260504201423 62 146 2.0 2.0 0.00 0.00 0.00 35 1010.1
20260504200921 61 200 0.0 1.0 0.00 0.00 0.00 35 1009.5
20260504200418 60 114 2.0 2.0 0.00 0.00 0.00 38 1009.8
20260504195914 60 98 1.0 1.0 0.00 0.00 0.00 38 1009.8
20260504195410 59 177 0.0 1.0 0.00 0.00 0.00 42 1009.9
20260504194907 58 141 2.0 3.0 0.00 0.00 0.00 42 1010.1
20260504194402 58 120 1.0 1.0 0.00 0.00 0.00 47 1010.1
20260504193859 59 237 1.0 2.0 0.00 0.00 0.00 45 1010.4
20260504193356 61 135 3.0 3.0 0.00 0.00 0.00 40 1010.3
20260504192855 62 102 2.0 3.0 0.00 0.00 0.00 34 1010.2
20260504192352 62 191 1.0 5.0 0.00 0.00 0.00 29 1009.7
20260504191850 63 249 3.0 5.0 0.00 0.00 0.00 28 1009.7
20260504191348 64 63 1.0 2.0 0.00 0.00 0.00 27 1009.4
20260504190843 65 322 2.0 3.0 0.00 0.00 0.00 24 1009.2
20260504190339 66 331 1.0 1.0 0.00 0.00 0.00 20 1009.1
20260504185836 67 147 1.0 1.0 0.00 0.00 0.00 20 1009.1
20260504185333 68 190 2.0 2.0 0.00 0.00 0.00 21 1008.6
20260504184829 69 180 0.0 0.0 0.00 0.00 0.00 21 1008.9
20260504184325 69 322 0.0 0.0 0.00 0.00 0.00 22 1008.4
20260504183821 69 279 0.0 0.0 0.00 0.00 0.00 21 1008.8
20260504183319 69 315 0.0 0.0 0.00 0.00 0.00 20 1008.6
20260504182816 68 356 0.0 1.0 0.00 0.00 0.00 23 1008.9
20260504182314 68 44 0.0 0.0 0.00 0.00 0.00 21 1008.6
20260504181811 68 347 1.0 1.0 0.00 0.00 0.00 21 1008.6
20260504181308 69 284 2.0 3.0 0.00 0.00 0.00 20 1008.9
20260504180807 68 307 1.0 1.0 0.00 0.00 0.00 20 1008.8
20260504180305 69 293 0.0 1.0 0.00 0.00 0.00 20 1009.1
20260504175803 69 247 2.0 3.0 0.00 0.00 0.00 21 1009.0
20260504175259 69 314 2.0 2.0 0.00 0.00 0.00 21 1008.9
20260504174757 70 300 3.0 3.0 0.00 0.00 0.00 21 1009.1
20260504174254 72 336 6.0 8.0 0.00 0.00 0.00 19 1009.7
20260504173751 72 283 3.0 5.0 0.00 0.00 0.00 20 1009.5
20260504173248 73 231 3.0 3.0 0.00 0.00 0.00 20 1009.5
20260504172745 73 281 3.0 3.0 0.00 0.00 0.00 21 1009.6
20260504172241 73 277 1.0 2.0 0.00 0.00 0.00 22 1009.8
20260504171737 72 312 2.0 7.0 0.00 0.00 0.00 22 1009.8
20260504171234 72 310 0.0 0.0 0.00 0.00 0.00 22 1009.7
20260504170731 71 319 4.0 5.0 0.00 0.00 0.00 21 1009.8
20260504170228 72 303 3.0 5.0 0.00 0.00 0.00 22 1009.7
20260504160147 64 163 0.0 1.0 0.00 0.00 0.00 27 1010.4
20260504151114 61 83 0.0 0.0 0.00 0.00 0.00 30 1010.5
20260504150612 61 120 0.0 0.0 0.00 0.00 0.00 29 1010.8
20260504150109 61 149 0.0 0.0 0.00 0.00 0.00 30 1010.9
20260504141038 55 276 0.0 0.0 0.00 0.00 0.00 37 1010.7
20260504140534 54 287 0.0 0.0 0.00 0.00 0.00 35 1010.8
20260504130459 46 319 0.0 0.0 0.00 0.00 0.00 40 1010.3
20260504110345 41 321 0.0 0.0 0.00 0.00 0.00 48 1010.3
20260504100303 41 311 0.0 0.0 0.00 0.00 0.00 48 1010.7
20260504081656 44 305 0.0 0.0 0.00 0.00 0.00 47 1011.6
20260504081153 44 305 0.0 0.0 0.00 0.00 0.00 47 1011.7